[[{"header":{"parameterUnit":"m.s-1","parameterCategory":1,"la1":30.2991,"la2":30.254,"lo1":-89.0895,"lo2":-89.0444,"dy":0.0017,"dx":0.0017,"nx":28,"ny":28,"refTime":"2024-04-01T09:00:00:Z","depth":0,"parameterNumber":2,"parameterNumberName":"U-component_of_WINDS"},"data":[0,0,0,0,0,0,0,0,0,0,0,0,0,0,0,0,0,0,0,0,0,0,0,0,0,0,0,0,0,0,0,0,0,0,0,0,0,0,0,0,0,0,0,0,0,0,0,0,0,0,0,0,0,0,0,0,0,0,-0.439,-0.439,0,-0.444,-0.444,-0.4441,-0.4455,-0.4454,-0.4454,-0.4454,-0.4507,-0.4508,-0.451,0,0,0,0,0,0,0,0,0,0,0,0,0,-0.4308,-0.431,-0.439,-0.439,-0.4391,-0.444,-0.444,-0.4441,-0.4455,-0.4454,-0.4454,-0.4454,-0.4506,-0.4508,-0.451,0,0,0,0,0,0,0,0,0,0,0,0,0,-0.435,-0.431,-0.439,-0.4404,-0.4405,-0.444,-0.444,-0.4441,-0.4455,-0.4454,-0.4454,-0.4454,-0.4505,-0.4508,-0.451,-0.4535,0,0,-0.4518,-0.4519,0,0,0,0,0,0,0,0,-0.4347,-0.4353,-0.4401,-0.4403,-0.4405,-0.444,-0.4431,-0.4473,-0.4455,-0.4436,-0.4454,-0.4453,-0.4485,-0.4489,-0.45,-0.4537,-0.4539,-0.4518,-0.452,-0.4521,-0.4522,0,0,0,0,0,0,0,-0.4344,-0.435,-0.441,-0.4402,-0.4404,-0.4408,-0.4414,-0.4439,-0.4462,-0.4438,-0.4439,-0.4444,-0.4486,-0.4497,-0.4501,-0.454,-0.4518,-0.452,-0.4522,-0.4523,-0.4601,-0.4602,0,0,0,0,0,0,-0.4339,-0.4348,-0.4408,-0.4411,-0.4374,-0.441,-0.4416,-0.4429,-0.4462,-0.4467,-0.4445,-0.4445,-0.4493,-0.4498,-0.4503,-0.4534,-0.4521,-0.4523,-0.4525,-0.4601,-0.4601,-0.4602,0,0,0,0,0,0,-0.4337,-0.4344,-0.4406,-0.438,-0.4388,-0.4412,-0.4427,-0.4431,-0.4442,-0.4468,-0.4472,-0.4452,-0.4493,-0.4499,-0.4527,-0.4536,-0.4524,-0.4527,-0.46,-0.4601,-0.4602,-0.4596,0,0,0,0,0,0,-0.4335,-0.4343,-0.4352,-0.438,-0.4389,-0.4428,-0.4427,-0.4432,-0.4446,-0.4447,-0.4475,-0.448,-0.4493,-0.4523,-0.4529,-0.4539,-0.4529,-0.4599,-0.46,-0.4601,-0.4595,-0.4596,-0.4597,0,0,0,0,0,-0.4332,-0.4349,-0.4352,-0.436,-0.4401,-0.4429,-0.4434,-0.4449,-0.4447,-0.4456,-0.4473,-0.4479,-0.4534,-0.4526,-0.4533,-0.4544,-0.4599,-0.46,-0.4601,-0.4595,-0.4596,-0.4597,0,0,0,0,0,0,-0.4322,-0.4352,-0.4357,-0.4383,-0.4403,-0.4431,-0.4443,-0.445,-0.4471,-0.4471,-0.4489,-0.4495,-0.4522,-0.4535,-0.4526,-0.4569,-0.4567,-0.4569,-0.4559,-0.4561,-0.4562,-0.4558,-0.4531,0,0,0,0,0,-0.4322,-0.4342,-0.4368,-0.4389,-0.4398,-0.4419,-0.4432,-0.4442,-0.4463,-0.4472,-0.449,-0.4512,-0.4534,-0.4548,-0.457,-0.4598,-0.4604,-0.4609,-0.461,-0.461,-0.4613,-0.4629,-0.4631,-0.4606,-0.4606,-0.4606,0,0,-0.4324,-0.4344,-0.4355,-0.4387,-0.4404,-0.4424,-0.4426,-0.4447,-0.4463,-0.4475,-0.4502,-0.4517,-0.4542,-0.4569,-0.4583,-0.4582,-0.4621,-0.4612,-0.4612,-0.4614,-0.4631,-0.4633,-0.4635,-0.4607,-0.4607,-0.4607,0,0,-0.4338,-0.4354,-0.4374,-0.439,-0.4415,-0.4429,-0.4434,-0.4461,-0.4471,-0.4498,-0.4508,-0.4527,-0.4565,-0.4582,-0.4596,-0.4618,-0.4624,-0.4625,-0.463,-0.4646,-0.4648,-0.465,-0.4658,-0.466,-0.4627,-0.4627,-0.4627,0,-0.4337,-0.4368,-0.4383,-0.4404,-0.4419,-0.443,-0.4451,-0.4466,-0.4497,-0.4507,-0.4506,-0.4554,-0.4572,-0.4604,-0.4609,-0.462,-0.4627,-0.4621,-0.4646,-0.4648,-0.465,-0.4658,-0.4661,-0.4627,-0.4627,-0.4627,-0.4627,0,-0.4366,-0.4387,-0.44,-0.4429,-0.4445,-0.4466,-0.4485,-0.4499,-0.4508,-0.4522,-0.4551,-0.4572,-0.4599,-0.4608,-0.4616,-0.4642,-0.464,-0.4642,-0.464,-0.4652,-0.466,-0.4663,-0.4627,-0.4627,-0.4627,-0.4627,0,0,-0.4374,-0.4412,-0.4417,-0.4431,-0.4459,-0.4476,-0.4498,-0.4524,-0.4536,-0.4558,-0.4577,-0.4609,-0.4611,-0.4627,-0.4638,-0.4652,-0.4668,-0.4652,-0.4653,-0.4655,-0.4698,-0.4696,-0.47,-0.4673,-0.4674,-0.4674,-0.4696,0,-0.4392,-0.443,-0.4445,-0.4476,-0.4497,-0.4509,-0.4528,-0.4548,-0.4562,-0.4582,-0.4598,-0.4621,-0.4622,-0.4631,-0.4646,-0.4663,-0.4677,-0.4662,-0.4691,-0.4692,-0.4685,-0.4704,-0.4702,-0.4722,-0.4699,-0.47,-0.47,0,-0.4418,-0.4439,-0.4472,-0.4499,-0.4508,-0.4525,-0.455,-0.4569,-0.4592,-0.4602,-0.462,-0.463,-0.4654,-0.4651,-0.4684,-0.4674,-0.4687,-0.4697,-0.4699,-0.4702,-0.4697,-0.4708,-0.4728,-0.4731,-0.4705,-0.4705,-0.4704,0,-0.4421,-0.4458,-0.4483,-0.4494,-0.4526,-0.4538,-0.4552,-0.4575,-0.459,-0.4612,-0.4622,-0.4647,-0.4661,-0.4681,-0.4698,-0.4694,-0.4731,-0.4728,-0.474,-0.4739,-0.4747,-0.4746,-0.477,-0.4755,-0.4755,-0.4755,-0.4755,0,-0.4439,-0.4459,-0.4484,-0.45,-0.4523,-0.454,-0.4563,-0.4578,-0.4599,-0.4618,-0.463,-0.4648,-0.467,-0.4691,-0.4704,-0.4731,-0.4737,-0.4746,-0.4749,-0.4745,-0.4744,-0.4753,-0.4753,-0.4756,-0.4756,-0.4756,-0.4756,0,-0.4446,-0.4464,-0.4492,-0.452,-0.4528,-0.4543,-0.4568,-0.4584,-0.4599,-0.4623,-0.463,-0.4654,-0.4679,-0.4698,-0.4731,-0.4741,-0.4769,-0.4772,-0.476,-0.4762,-0.4773,-0.4772,-0.4804,-0.4809,-0.4791,-0.4791,-0.4791,0,-0.4456,-0.4472,-0.4502,-0.4515,-0.4529,-0.4551,-0.4566,-0.4584,-0.4599,-0.4628,-0.4641,-0.4667,-0.4689,-0.4729,-0.475,-0.4775,-0.478,-0.4789,-0.4784,-0.4779,-0.478,-0.4779,-0.4781,-0.479,-0.479,-0.479,-0.479,0,-0.4473,-0.4481,-0.4502,-0.4527,-0.4544,-0.4565,-0.4585,-0.4596,-0.4618,-0.4635,-0.4661,-0.4678,-0.4712,-0.4738,-0.4766,-0.4781,-0.479,-0.4792,-0.4796,-0.4792,-0.4784,-0.4789,-0.4763,-0.4791,-0.4791,-0.4791,-0.4791,-0.4791,-0.4482,-0.4497,-0.452,-0.4544,-0.4561,-0.458,-0.4597,-0.4614,-0.4635,-0.4664,-0.4674,-0.4701,-0.4725,-0.4763,-0.4779,-0.4801,-0.4801,-0.4807,-0.4809,-0.481,-0.481,-0.4781,-0.4806,-0.4806,-0.4806,-0.4806,-0.4806,0,-0.45,-0.4516,-0.4537,-0.4565,-0.4584,-0.459,-0.4613,-0.4629,-0.4652,-0.4674,-0.4695,-0.4725,-0.4751,-0.4774,-0.4801,-0.4814,-0.4819,-0.4821,-0.482,-0.4823,-0.4808,-0.4801,-0.4816,-0.4816,-0.4816,-0.4816,-0.4816,-0.4816,-0.4511,-0.4537,-0.4548,-0.4582,-0.4598,-0.4624,-0.4637,-0.4655,-0.4673,-0.4706,-0.4727,-0.4741,-0.4764,-0.4793,-0.4817,-0.4823,-0.4833,-0.4834,-0.4841,-0.4826,-0.4824,-0.4823,-0.4817,-0.4835,-0.4835,-0.4855,-0.4855,-0.4855]},{"header":{"parameterUnit":"m.s-1","parameterCategory":1,"la1":30.2991,"la2":30.254,"lo1":-89.0895,"lo2":-89.0444,"dy":0.0017,"dx":0.0017,"nx":28,"ny":28,"refTime":"2024-04-01T09:00:00:Z","depth":0,"parameterNumber":3,"parameterNumberName":"V-component_of_WINDS"},"data":[0,0,0,0,0,0,0,0,0,0,0,0,0,0,0,0,0,0,0,0,0,0,0,0,0,0,0,0,0,0,0,0,0,0,0,0,0,0,0,0,0,0,0,0,0,0,0,0,0,0,0,0,0,0,0,0,0,0,3.3722,3.3722,0,3.372,3.372,3.372,3.3725,3.3725,3.3726,3.3726,3.3722,3.3722,3.3721,0,0,0,0,0,0,0,0,0,0,0,0,0,3.3728,3.3728,3.3722,3.3722,3.3722,3.372,3.372,3.372,3.3725,3.3725,3.3726,3.3726,3.3722,3.3722,3.3721,0,0,0,0,0,0,0,0,0,0,0,0,0,3.3726,3.3728,3.3722,3.3724,3.3724,3.372,3.372,3.372,3.3725,3.3725,3.3726,3.3726,3.3722,3.3722,3.3721,3.3715,0,0,3.372,3.372,0,0,0,0,0,0,0,0,3.3726,3.3725,3.3724,3.3724,3.3724,3.3723,3.3721,3.3718,3.3725,3.3725,3.3726,3.3726,3.3722,3.3722,3.3721,3.3714,3.3714,3.372,3.372,3.372,3.372,0,0,0,0,0,0,0,3.3726,3.3726,3.3721,3.3724,3.3724,3.3725,3.3725,3.3721,3.3722,3.3725,3.3725,3.3725,3.3722,3.3721,3.3721,3.3714,3.372,3.372,3.372,3.372,3.3703,3.3703,0,0,0,0,0,0,3.3726,3.3726,3.3721,3.3721,3.3726,3.3725,3.3725,3.3723,3.3722,3.3722,3.3725,3.3725,3.3722,3.3721,3.3721,3.3713,3.372,3.372,3.3719,3.3704,3.3703,3.3703,0,0,0,0,0,0,3.3726,3.3726,3.3721,3.3724,3.3723,3.3724,3.3723,3.3723,3.3722,3.3722,3.3722,3.3724,3.3722,3.3721,3.3717,3.3713,3.3719,3.3719,3.3704,3.3704,3.3703,3.3698,0,0,0,0,0,0,3.3726,3.3726,3.3723,3.3723,3.3723,3.3717,3.3723,3.3723,3.3722,3.3722,3.3721,3.3721,3.3722,3.3717,3.3716,3.3713,3.3719,3.3704,3.3704,3.3703,3.3699,3.3698,3.3697,0,0,0,0,0,3.3726,3.3721,3.3723,3.3722,3.372,3.3717,3.3717,3.3719,3.3721,3.3719,3.3719,3.3721,3.3714,3.3716,3.3716,3.3712,3.3704,3.3704,3.3703,3.3699,3.3698,3.3697,0,0,0,0,0,0,3.3719,3.3721,3.3723,3.3718,3.3717,3.3718,3.3715,3.3717,3.3715,3.3716,3.3718,3.3717,3.3712,3.3712,3.3715,3.3706,3.371,3.3709,3.3707,3.3706,3.3705,3.3705,3.3718,0,0,0,0,0,3.3717,3.3715,3.3717,3.3712,3.3712,3.3713,3.3712,3.3714,3.3713,3.3713,3.3713,3.3711,3.3709,3.3707,3.3705,3.3699,3.3699,3.3696,3.3695,3.3695,3.3694,3.3692,3.3691,3.3702,3.3702,3.3702,0,0,3.3712,3.3713,3.3711,3.371,3.371,3.3708,3.3713,3.371,3.3709,3.3712,3.3708,3.3708,3.3707,3.3702,3.3699,3.3701,3.3691,3.3694,3.3694,3.3693,3.3691,3.369,3.3689,3.3701,3.3701,3.3701,0,0,3.3702,3.3703,3.3699,3.3699,3.37,3.3701,3.3701,3.3701,3.3702,3.3698,3.3701,3.3699,3.3695,3.3694,3.3693,3.3685,3.3687,3.3685,3.368,3.3678,3.3677,3.3676,3.3674,3.3673,3.3684,3.3684,3.3684,0,3.3696,3.3693,3.3697,3.3694,3.3694,3.3698,3.3695,3.3695,3.3694,3.3694,3.3696,3.3692,3.3691,3.3686,3.3685,3.3684,3.3683,3.3684,3.3677,3.3676,3.3676,3.3674,3.3673,3.3684,3.3684,3.3684,3.3684,0,3.3686,3.3684,3.3681,3.3682,3.3681,3.3678,3.3681,3.368,3.3682,3.3683,3.368,3.368,3.3678,3.3677,3.3679,3.3673,3.3675,3.3677,3.368,3.3674,3.3672,3.3672,3.3683,3.3683,3.3683,3.3683,0,0,3.367,3.3674,3.3673,3.3674,3.3675,3.3674,3.3671,3.3671,3.367,3.367,3.3668,3.3665,3.3668,3.3667,3.3669,3.3667,3.3662,3.3669,3.367,3.3668,3.3656,3.3655,3.3654,3.3663,3.3663,3.3663,3.3657,0,3.3661,3.3657,3.3661,3.3657,3.3656,3.3661,3.3659,3.366,3.3661,3.366,3.3662,3.366,3.3663,3.3663,3.3661,3.3663,3.3659,3.3663,3.3661,3.3661,3.3662,3.3653,3.3651,3.3645,3.3656,3.3656,3.3656,0,3.3649,3.365,3.3646,3.365,3.3649,3.3647,3.3648,3.3647,3.3648,3.365,3.365,3.3652,3.365,3.3654,3.3651,3.3654,3.3654,3.3654,3.3654,3.3654,3.3658,3.3652,3.3643,3.3642,3.3654,3.3655,3.3655,0,3.3639,3.3639,3.3637,3.3637,3.3641,3.364,3.3641,3.3643,3.3643,3.3643,3.3643,3.3643,3.3643,3.3643,3.3645,3.3648,3.3643,3.3646,3.3644,3.3644,3.3642,3.3642,3.3632,3.3642,3.3642,3.3642,3.3642,0,3.3628,3.3626,3.3632,3.3631,3.3629,3.3633,3.3631,3.3632,3.3634,3.3633,3.3637,3.3636,3.364,3.3639,3.3641,3.364,3.3639,3.364,3.3641,3.364,3.364,3.364,3.364,3.3642,3.3642,3.3642,3.3642,0,3.3616,3.362,3.3618,3.3623,3.3624,3.3622,3.3625,3.3624,3.3627,3.3626,3.3626,3.363,3.3629,3.3632,3.3632,3.3634,3.3631,3.3632,3.3631,3.3631,3.3628,3.3629,3.3618,3.3617,3.3627,3.3627,3.3627,0,3.3609,3.3607,3.3612,3.3612,3.3614,3.3614,3.3615,3.3619,3.3619,3.3622,3.3621,3.3621,3.3622,3.3621,3.3623,3.3624,3.3625,3.3621,3.3625,3.3625,3.3625,3.3626,3.3626,3.362,3.362,3.362,3.362,0,3.3596,3.3599,3.36,3.3602,3.3603,3.3604,3.3606,3.3606,3.3611,3.3611,3.3612,3.3612,3.3613,3.3614,3.3615,3.3616,3.3619,3.3619,3.3619,3.3618,3.3617,3.3618,3.3629,3.3619,3.3619,3.3619,3.3619,3.3619,3.3586,3.3586,3.3589,3.3591,3.3593,3.3595,3.3595,3.3598,3.3599,3.36,3.3603,3.3603,3.3606,3.3608,3.3609,3.3609,3.3611,3.361,3.361,3.3609,3.3609,3.3617,3.3609,3.3609,3.3609,3.3609,3.3609,0,3.3574,3.3577,3.3579,3.3582,3.3583,3.3587,3.359,3.359,3.3591,3.3593,3.3594,3.3595,3.3596,3.3599,3.3601,3.36,3.3602,3.36,3.36,3.3601,3.3607,3.3608,3.3599,3.3599,3.3599,3.3599,3.3599,3.3599,3.3568,3.3568,3.3571,3.3572,3.3575,3.3576,3.3577,3.3579,3.3581,3.3583,3.3584,3.3586,3.3589,3.3591,3.3592,3.3593,3.3594,3.3592,3.3593,3.3599,3.36,3.3601,3.3602,3.3592,3.3592,3.3587,3.3587,3.3587]}]]